This is the latest recevied weather packets stored in our database for station/object VE9LJW. If no packets are shown the sender has not sent any weather packets the latest 10 day(s).
| Time | Temp. | Humidity | Pressure | Rain* | Wind** | Luminosity | Snow |
|---|---|---|---|---|---|---|---|
| 1777756909 | 14.44° C | 56% | 1010.7 hPa | 0 mm | - | 53 W/m² | - |
| 1777756604 | 14.44° C | 56% | 1010.8 hPa | 0 mm | - | 50 W/m² | - |
| 1777756301 | 14.44° C | 59% | 1010.6 hPa | 0 mm | - | 54 W/m² | - |
| 1777755999 | 14.44° C | 63% | 1010.7 hPa | 0 mm | - | 38 W/m² | - |
| 1777755696 | 14.44° C | 62% | 1010.7 hPa | 0 mm | - | 34 W/m² | - |
| 1777755392 | 15° C | 64% | 1010.4 hPa | 0 mm | - | 34 W/m² | - |
| 1777755089 | 14.44° C | 60% | 1010.3 hPa | 0 mm | - | 55 W/m² | - |
| 1777754786 | 15° C | 58% | 1010.5 hPa | 0 mm | - | 39 W/m² | - |
| 1777754478 | 15° C | 58% | 1010.7 hPa | 0 mm | - | 37 W/m² | - |
| 1777754175 | 15° C | 60% | 1010.4 hPa | 0 mm | - | 40 W/m² | - |
| 1777753873 | 15° C | 57% | 1010.5 hPa | 0 mm | - | 64 W/m² | - |
| 1777753568 | 15° C | 57% | 1010.3 hPa | 0 mm | - | 81 W/m² | - |
| 1777753266 | 15° C | 57% | 1010.3 hPa | 0 mm | - | 108 W/m² | - |
| 1777752962 | 14.44° C | 58% | 1010.2 hPa | 0 mm | - | 104 W/m² | - |
| 1777752659 | 15° C | 57% | 1010.3 hPa | 0 mm | - | 95 W/m² | - |
| 1777752354 | 15° C | 59% | 1010.3 hPa | 0 mm | - | 105 W/m² | - |
| 1777752052 | 14.44° C | 57% | 1010.4 hPa | 0 mm | - | 164 W/m² | - |
| 1777751750 | 14.44° C | 55% | 1010.3 hPa | 0 mm | - | 201 W/m² | - |
| 1777751446 | 14.44° C | 58% | 1010.4 hPa | 0 mm | - | 274 W/m² | - |
| 1777751142 | 14.44° C | 58% | 1010.4 hPa | 0 mm | - | 232 W/m² | - |
| 1777750838 | 14.44° C | 58% | 1010.3 hPa | 0 mm | - | 166 W/m² | - |
| 1777750536 | 14.44° C | 57% | 1010.4 hPa | 0 mm | - | 120 W/m² | - |
| 1777750233 | 14.44° C | 59% | 1010.2 hPa | 0 mm | - | 142 W/m² | - |
| 1777749928 | 15° C | 56% | 1010.2 hPa | 0 mm | - | 125 W/m² | - |
| 1777749626 | 15° C | 55% | 1010.2 hPa | 0 mm | - | 133 W/m² | - |
* Rain latest hour (hover to see other rain measurements)
** Current wind speed in m/s (hover to see current wind gust speed)